This is the latest recevied weather packets stored in our database for station/object KC3ELT-10. If no packets are shown the sender has not sent any weather packets the latest 10 day(s).
| Time | Temp. | Humidity | Pressure | Rain* | Wind** | Luminosity | Snow |
|---|---|---|---|---|---|---|---|
| 1777811578 | 5.56° C | 63% | 1008.1 hPa | 0 mm | 0.89 m/s, 347° | - | - |
| 1777811279 | 5° C | 63% | 1008.1 hPa | 0 mm | 0.89 m/s, 359° | - | - |
| 1777810979 | 5° C | 64% | 1008.1 hPa | 0 mm | 1.34 m/s, 14° | - | - |
| 1777810679 | 5° C | 65% | 1008.1 hPa | 0 mm | 1.34 m/s, 1° | - | - |
| 1777810379 | 5° C | 66% | 1007.9 hPa | 0 mm | 1.79 m/s, 0° | - | - |
| 1777810079 | 4.44° C | 66% | 1007.9 hPa | 0 mm | 2.24 m/s, 0° | - | - |
| 1777809779 | 4.44° C | 66% | 1007.9 hPa | 0 mm | 2.24 m/s, 354° | - | - |
| 1777809479 | 5° C | 65% | 1007.9 hPa | 0 mm | 1.79 m/s, 63° | - | - |
| 1777809179 | 4.44° C | 66% | 1007.9 hPa | 0 mm | 1.79 m/s, 347° | - | - |
| 1777808879 | 4.44° C | 67% | 1007.9 hPa | 0 mm | 4.92 m/s, 49° | - | - |
| 1777808579 | 4.44° C | 66% | 1007.8 hPa | 0 mm | 2.68 m/s, 280° | - | - |
| 1777808279 | 4.44° C | 68% | 1007.8 hPa | 0 mm | 0.89 m/s, 348° | - | - |
| 1777807979 | 4.44° C | 68% | 1007.8 hPa | 0 mm | 0.45 m/s, 338° | - | - |
| 1777807679 | 4.44° C | 67% | 1007.6 hPa | 0 mm | 0.89 m/s, 13° | - | - |
| 1777807379 | 4.44° C | 67% | 1007.6 hPa | 0 mm | 0.89 m/s, 1° | - | - |
| 1777807079 | 4.44° C | 67% | 1007.6 hPa | 0 mm | 0.89 m/s, 1° | - | - |
| 1777806779 | 4.44° C | 67% | 1007.4 hPa | 0 mm | 1.34 m/s, 23° | - | - |
| 1777806479 | 4.44° C | 67% | 1007.4 hPa | 0 mm | 1.79 m/s, 16° | - | - |
| 1777806179 | 4.44° C | 67% | 1007.4 hPa | 0 mm | 1.34 m/s, 350° | - | - |
| 1777805879 | 4.44° C | 67% | 1007 hPa | 0 mm | 1.79 m/s, 355° | - | - |
| 1777805579 | 4.44° C | 67% | 1007 hPa | 0 mm | 1.34 m/s, 329° | - | - |
| 1777805279 | 4.44° C | 67% | 1007 hPa | 0 mm | 2.24 m/s, 359° | - | - |
| 1777804979 | 4.44° C | 67% | 1007 hPa | 0 mm | 2.24 m/s, 339° | - | - |
| 1777804679 | 4.44° C | 67% | 1007 hPa | 0 mm | 2.24 m/s, 0° | - | - |
| 1777804379 | 4.44° C | 67% | 1007 hPa | 0 mm | 1.34 m/s, 14° | - | - |
* Rain latest hour (hover to see other rain measurements)
** Current wind speed in m/s (hover to see current wind gust speed)